Weather History for Cut Bank, MT

Change the Weather History Date:

Tuesday, February 26, 2013

  Actual Average Record
Temperature  
Mean Temperature 27 °F 26 °F  
Max Temperature 36 °F 37 °F 66 °F (1992)
Min Temperature 18 °F 15 °F -30 °F (1904)
Degree Days  
Heating Degree Days 38 39  
Month to date heating degree days 910 1065  
Since 1 July heating degree days 5673 5983  
Cooling Degree Days 0 0  
Month to date cooling degree days 0 0  
Year to date cooling degree days 0 0  
Moisture  
Dew Point 19 °F    
Average Humidity 72    
Maximum Humidity 92    
Minimum Humidity 52    
Precipitation  
Precipitation 0.00 in 0.01 in 0.32 in (1958)
Month to date precipitation 0.31 0.19  
Year to date precipitation 0.73 0.39  
Snow  
Snow 0.00 in - - ()
Snow Depth 0.00 in    
Sea Level Pressure  
Sea Level Pressure 30.15 in    
Wind  
Wind Speed 11 mph (NW)    
Max Wind Speed 21 mph    
Max Gust Speed 25 mph    
Visibility 10 miles    
Events      
T = Trace of Precipitation, MM = Missing Value Source: NWS Daily Summary

Daily Weather History Graph

Daily Weather History Graph

Search for Another Location

Airport:

Trip Planner

Search our weather history database for the weather conditions in past years. The results will help you decide how hot, cold, wet, or windy it might be!

Date:

Astronomy

Feb. 26, 2013 Rise Set
Actual Time 7:16 AM MST 6:09 PM MST
Civil Twilight 6:44 AM MST 6:40 PM MST
Nautical Twilight 6:08 AM MST 7:17 PM MST
Astronomical Twilight 5:31 AM MST 7:53 PM MST
Moon 7:41 PM MST (2/26) 7:12 AM MST (2/26)
Length of Visible Light 11h 56m
Length of Day
10h 52m
Full, 99% of the Moon is Illuminated
Feb 26
Full
Mar 4
Last Quarter
Mar 11
New
Mar 19
First Quarter
Mar 27
Full

Hourly Weather History & Observations

Time (MST) Temp. Windchill Dew Point Humidity Pressure Visibility Wind Dir Wind Speed Gust Speed Precip Events Conditions
12:56 AM 28.9 °F 19.2 °F 23.0 °F 78% 29.92 in 10.0 mi NW 11.5 mph - N/A   Overcast
1:56 AM 28.0 °F 17.0 °F 24.1 °F 85% 29.95 in 10.0 mi North 13.8 mph - N/A   Overcast
2:56 AM 25.0 °F 12.6 °F 21.0 °F 85% 29.98 in 8.0 mi NNW 15.0 mph - N/A   Overcast
3:56 AM 21.0 °F 8.6 °F 18.0 °F 88% 30.01 in 8.0 mi NNW 12.7 mph - N/A   Clear
4:56 AM 21.9 °F 7.8 °F 19.0 °F 89% 30.04 in 10.0 mi NNW 17.3 mph - N/A   Mostly Cloudy
5:56 AM 23.0 °F 8.7 °F 19.0 °F 85% 30.07 in 10.0 mi NNW 18.4 mph - N/A   Overcast
6:56 AM 23.0 °F 9.6 °F 19.0 °F 85% 30.11 in 10.0 mi NNW 16.1 mph - N/A   Overcast
7:56 AM 23.0 °F 10.6 °F 19.0 °F 85% 30.14 in 10.0 mi NW 13.8 mph - N/A   Overcast
8:56 AM 24.1 °F 12.0 °F 19.0 °F 81% 30.16 in 10.0 mi NNW 13.8 mph - N/A   Overcast
9:56 AM 27.0 °F 14.3 °F 19.0 °F 72% 30.17 in 10.0 mi NNW 17.3 mph - N/A   Overcast
10:56 AM 28.0 °F 16.5 °F 19.0 °F 69% 30.19 in 10.0 mi NNW 15.0 mph - N/A   Overcast
11:56 AM 28.0 °F 16.1 °F 19.0 °F 69% 30.20 in 10.0 mi NNW 16.1 mph - N/A   Overcast
12:56 PM 30.9 °F 22.2 °F 19.9 °F 64% 30.19 in 10.0 mi North 10.4 mph - N/A   Overcast
1:56 PM 33.1 °F 30.0 °F 19.0 °F 56% 30.17 in 10.0 mi Variable 3.5 mph - N/A   Mostly Cloudy
2:56 PM 36.0 °F 32.1 °F 19.0 °F 50% 30.17 in 10.0 mi NNE 4.6 mph - N/A   Overcast
3:56 PM 35.1 °F 31.0 °F 23.0 °F 61% 30.20 in 10.0 mi South 4.6 mph - N/A   Overcast
4:56 PM 33.1 °F 28.7 °F 21.9 °F 64% 30.20 in 10.0 mi South 4.6 mph - N/A   Overcast
5:56 PM 30.9 °F 25.2 °F 19.9 °F 64% 30.22 in 10.0 mi Variable 5.8 mph - N/A   Partly Cloudy
6:56 PM 27.0 °F 16.7 °F 17.1 °F 66% 30.23 in 10.0 mi WSW 11.5 mph - N/A   Clear
7:56 PM 27.0 °F 15.6 °F 16.0 °F 63% 30.23 in 10.0 mi West 13.8 mph - N/A   Clear
8:56 PM 26.1 °F 15.6 °F 16.0 °F 66% 30.23 in 10.0 mi WSW 11.5 mph - N/A   Clear
9:56 PM 25.0 °F 15.5 °F 15.1 °F 66% 30.23 in 10.0 mi SW 9.2 mph - N/A   Clear
10:56 PM 25.0 °F 20.7 °F 15.1 °F 66% 30.23 in 10.0 mi SSW 3.5 mph - N/A   Clear
11:56 PM 21.0 °F - 14.0 °F 74% 30.24 in 10.0 mi Calm Calm - N/A   Clear